ATLAS 5 CENTAUR DEB, 57598

Orbit data source: Space-Track

ATLAS 5 CENTAUR DEB, 57598 is space debris in HEO originally from a launch on Wed, 17 Oct 2018 UTC launched from the Air Force Eastern Test Range (AFETR). Debris objects in space refer to the collection of defunct objects orbiting the Earth. Examples of debris include non-operational satellites, rocket bodies, and fragments generated from explosions, collisions, or faulty payload assembly.

Loading next visibility...
Identifier
57598, 2018-079HZ
Orbit
HEO
Country
Flag of USUS
Related business
Flag of USUnited Launch Alliance/Lockheed Martin (US)
Manufacturer
ULA Decatur
Mission
Spacecraft
Bus & Motor
Unknown
Mass
Unknown
Launch date (UTC)
2018-10-17 (7 years ago)
Launch vehicle
Unknown
Launch site
Air Force Eastern Test Range (AFETR)
Object type
Payload
Rocket body
Debris
Shape & HBR
Unknown shape, 1.1 m
Radar Cross Section
RCS unknown

Expand to show TLE details & history
Last TLE update: 1 week ago

TLE from 1 week ago
0 ATLAS 5 CENTAUR DEB
1 57598U 18079HZ  25281.59421787 -.00000094  00000-0  00000-0 0  9994
2 57598  12.9984  56.9914 4613389 273.4476  36.8706  1.82936388 40776
Epoch: 2025-10-08T14:15Z
TLE epoch observation values (Epoch: 2025-10-08T14:15:40.423Z)
Latitude
-0.00007°
Longitude
-174.41491°
Altitude
15,224.98 km
Speed
4.774 km/s
True Right ascension
03h 47m 52s
True Declination
0° 00' 00"
Sunlit
Object was in daylight at epoch
Visualization orbit readout
Latitude
Unknown
Longitude
Unknown
Altitude
Unknown
Speed
Unknown
Apparent Right ascension
Unknown
Apparent Declination
Unknown
Sunlit
N/A
Visualization observer readout
Local Sidereal Time
12:43:51
Azimuth
Unknown
Elevation
Unknown
Doppler factor
Unknown
Orbital elements
Apogee altitude
34,893.471 km
Perigee altitude
8,834.905 km
Semi-major axis
28,242.325 km
Eccentricity
0.46134
Inclination
12.9984°
RAAN
56.9914°
Arg. of periapsis
273.4476°
True anomaly
86.76182°
Mean anomaly
36.8706°
Eccentric anomaly
59.69027°
Mean motion
0.45729 °/min
Orbital period
787.25 mins
BSTAR
0
Loading maneuver chart data...
Computing Atmospheric mass density...

Documentation

Showing up to 5 results
|